Tracking 17155 objects as of 29-July-2015
HD Live streaming from Space Station

BREEZE-M DEB

Track BREEZE-M DEB now!
10-day predictions
BREEZE-M DEB is classified as:


NORAD ID: 34254
Int'l Code: 2006-006BV
Perigee: 420.4 km
Apogee: 12,546.9 km
Inclination: 51.7 °
Period: 241.7 minutes
Semi major axis: 12854 km
RCS: 0.033 m2 (small)
Launch date: February 28, 2006
Source: Commonwealth of Independent States (former USSR) (CIS)

Note: This is SATELLITE DEBRIS
Your satellite tracking list
Your tracking list is empty





NASA's NSSDC Master Catalog

Two Line Element Set (TLE):
1 34254U 06006BV  15201.82938952  .00041028  00000-0  24627-1 0  9992
2 34254 051.6735 347.1739 4716769 174.4300 193.7850 05.95679393143962

Source of the keplerian elements: AFSPC

N2YO: 328